Weather History for Barcelona / Aeropuerto, Spain

Change the Weather History Date:

Saturday, August 10, 2013

  Actual Average Record
Temperature  
Mean Temperature 78 °F -  
Max Temperature 84 °F 78 °F - ()
Min Temperature 71 °F 66 °F - ()
Cooling Degree Days 12    
Growing Degree Days 28 (Base 50)    
Moisture  
Dew Point 65 °F    
Average Humidity 65    
Maximum Humidity 74    
Minimum Humidity 54    
Precipitation  
Precipitation 0.00 in 0.09 in - ()
Sea Level Pressure  
Sea Level Pressure 30.11 in    
Wind  
Wind Speed 7 mph ()    
Max Wind Speed 12 mph    
Max Gust Speed 17 mph    
Visibility 7.6 miles    
Events      
T = Trace of Precipitation, MM = Missing Value Source: Averaged Metar Reports

Daily Weather History Graph

Daily Weather History Graph

Search for Another Location

Airport:

Trip Planner

Search our weather history database for the weather conditions in past years. The results will help you decide how hot, cold, wet, or windy it might be!

Date:

Astronomy

Aug. 10, 2013 Rise Set
Actual Time 6:55 AM CEST 8:57 PM CEST
Civil Twilight 6:25 AM CEST 9:27 PM CEST
Nautical Twilight 5:48 AM CEST 10:04 PM CEST
Astronomical Twilight 5:08 AM CEST 10:44 PM CEST
Moon 10:29 AM CEST (8/10) 10:27 PM CEST (8/10)
Length of Visible Light 15h 01m
Length of Day
14h 01m
Waxing Crescent, 12% of the Moon is Illuminated
Aug 10
Waxing Crescent
Aug 14
First Quarter
Aug 21
Full
Aug 28
Last Quarter
Sep 5
New

Hourly Weather History & Observations

Time (CEST) Temp. Heat Index Dew Point Humidity Pressure Visibility Wind Dir Wind Speed Gust Speed Precip Events Conditions
12:00 AM 77.0 °F - 62.6 °F 61% 30.15 in - NNE 6.9 mph - N/A   Clear
12:30 AM 77.0 °F - 66.2 °F 69% 30.15 in - NNE 10.4 mph - N/A   Clear
1:00 AM 77.0 °F - 68.0 °F 74% 30.15 in - NE 10.4 mph - N/A   Clear
1:30 AM 77.0 °F - 68.0 °F 74% 30.15 in - NE 10.4 mph - N/A   Clear
2:00 AM 76 °F - 68 °F 71% 30.14 in 19 mi ENE 11.5 mph - -   Scattered Clouds
2:00 AM 77.0 °F - 68.0 °F 74% 30.12 in - ENE 8.1 mph - N/A   Clear
2:30 AM 77.0 °F - 68.0 °F 74% 30.15 in - East 8.1 mph - N/A   Clear
3:00 AM 77.0 °F - 68.0 °F 74% 30.15 in 6.2 mi East 5.8 mph - N/A   Partly Cloudy
3:30 AM 77.0 °F - 68.0 °F 74% 30.12 in 6.2 mi East 3.5 mph - N/A   Partly Cloudy
4:00 AM 75.2 °F - 64.4 °F 69% 30.12 in 6.2 mi North 4.6 mph - N/A   Scattered Clouds
4:30 AM 75.2 °F - 64.4 °F 69% 30.12 in 6.2 mi NNW 3.5 mph - N/A   Scattered Clouds
5:00 AM 73.4 °F - 64.4 °F 73% 30.12 in 6.2 mi NW 5.8 mph - N/A   Scattered Clouds
5:30 AM 73.4 °F - 62.6 °F 69% 30.12 in 6.2 mi NW 6.9 mph - N/A   Scattered Clouds
6:00 AM 73.4 °F - 62.6 °F 69% 30.09 in 6.2 mi NW 6.9 mph - N/A   Scattered Clouds
6:30 AM 71.6 °F - 62.6 °F 73% 30.12 in 6.2 mi NNW 9.2 mph - N/A   Partly Cloudy
7:00 AM 71.6 °F - 62.6 °F 73% 30.12 in 6.2 mi NNW 9.2 mph - N/A   Partly Cloudy
7:30 AM 71.6 °F - 60.8 °F 69% 30.12 in 6.2 mi NNW 9.2 mph - N/A   Partly Cloudy
8:00 AM 72 °F - 62 °F 64% 30.13 in 19 mi North 11.5 mph - -   Scattered Clouds
8:00 AM 71.6 °F - 60.8 °F 69% 30.12 in 6.2 mi NNW 11.5 mph - N/A   Partly Cloudy
8:30 AM 73.4 °F - 60.8 °F 65% 30.12 in 6.2 mi NW 10.4 mph - N/A   Partly Cloudy
9:00 AM 75.2 °F - 60.8 °F 61% 30.12 in 6.2 mi NW 8.1 mph - N/A   Partly Cloudy
9:30 AM 77.0 °F - 60.8 °F 57% 30.12 in 6.2 mi NNW 9.2 mph - N/A   Partly Cloudy
10:00 AM 78.8 °F - 62.6 °F 57% 30.12 in 6.2 mi NNW 5.8 mph 17.3 mph N/A   Partly Cloudy
10:30 AM 78.8 °F - 66.2 °F 65% 30.12 in 6.2 mi SW 1.2 mph - N/A   Partly Cloudy
11:00 AM 80.6 °F 82.3 °F 64.4 °F 58% 30.12 in 6.2 mi South 1.2 mph - N/A   Partly Cloudy
11:30 AM 80.6 °F 82.7 °F 66.2 °F 61% 30.12 in 6.2 mi SE 8.1 mph - N/A   Partly Cloudy
12:00 PM 80.6 °F 82.7 °F 66.2 °F 61% 30.12 in 6.2 mi SE 9.2 mph - N/A   Partly Cloudy
12:30 PM 80.6 °F 83.2 °F 68.0 °F 65% 30.12 in 6.2 mi SE 9.2 mph - N/A   Partly Cloudy
1:00 PM 80.6 °F 83.2 °F 68.0 °F 65% 30.12 in 6.2 mi SE 10.4 mph - N/A   Partly Cloudy
1:30 PM 82.4 °F 85.4 °F 68.0 °F 62% 30.12 in 6.2 mi SE 9.2 mph - N/A   Partly Cloudy
2:00 PM 82 °F - 70 °F 59% 30.12 in 19 mi SSE 8.1 mph - -   Scattered Clouds
2:00 PM 80.6 °F 83.2 °F 68.0 °F 65% 30.12 in 6.2 mi SE 9.2 mph - N/A   Partly Cloudy
2:30 PM 82.4 °F 85.4 °F 68.0 °F 62% 30.09 in 6.2 mi SE 8.1 mph - N/A   Partly Cloudy
3:00 PM 80.6 °F 83.9 °F 69.8 °F 70% 30.09 in 6.2 mi SE 9.2 mph - N/A   Partly Cloudy
3:30 PM 82.4 °F 85.4 °F 68.0 °F 62% 30.09 in 6.2 mi SE 8.1 mph - N/A   Partly Cloudy
4:00 PM 82.4 °F 85.4 °F 68.0 °F 62% 30.09 in 6.2 mi SSE 8.1 mph - N/A   Partly Cloudy
4:30 PM 82.4 °F 84.6 °F 66.2 °F 58% 30.09 in 6.2 mi South 9.2 mph - N/A   Partly Cloudy
5:00 PM 82.4 °F 84.6 °F 66.2 °F 58% 30.09 in 6.2 mi South 8.1 mph - N/A   Partly Cloudy
5:30 PM 80.6 °F 83.2 °F 68.0 °F 65% 30.09 in 6.2 mi South 9.2 mph - N/A   Partly Cloudy
6:00 PM 80.6 °F 83.2 °F 68.0 °F 65% 30.09 in 6.2 mi South 6.9 mph - N/A   Partly Cloudy
6:30 PM 80.6 °F 82.7 °F 66.2 °F 61% 30.09 in 6.2 mi South 6.9 mph - N/A   Partly Cloudy
7:00 PM 80.6 °F 82.7 °F 66.2 °F 61% 30.06 in - South 5.8 mph - N/A   Clear
7:30 PM 80.6 °F 82.3 °F 64.4 °F 58% 30.06 in - SSW 5.8 mph - N/A   Clear
8:00 PM 80 °F - 66 °F 54% 30.09 in 19 mi SSW 6.9 mph - -  
8:00 PM 78.8 °F - 64.4 °F 61% 30.06 in - SSW 6.9 mph - N/A   Clear
8:30 PM 78.8 °F - 62.6 °F 57% 30.09 in - SSW 5.8 mph - N/A   Clear
9:00 PM 78.8 °F - 62.6 °F 57% 30.09 in - SSW 4.6 mph - N/A   Clear
9:30 PM 78.8 °F - 62.6 °F 57% 30.09 in - SSW 5.8 mph - N/A   Clear
10:00 PM 78.8 °F - 62.6 °F 57% 30.09 in - SSW 4.6 mph - N/A   Clear
10:30 PM 77.0 °F - 64.4 °F 65% 30.09 in - SW 4.6 mph - N/A   Clear
11:00 PM 77.0 °F - 62.6 °F 61% 30.09 in - SW 5.8 mph - N/A   Clear
11:30 PM 77.0 °F - 62.6 °F 61% 30.09 in - SW 4.6 mph - N/A   Clear